Temperature
21 20 20 20 20 22 23 24 26 26 26 27 27 26 25 23 22 20 20 20 20 20 20 20 20 19 19 19 19 19 19 19 19 19 19 19 19 19 19 19 19 19 19 19 19 19 19 19 19
21 20 20 21 22 23 23 24 25 26 27 26 26 25 24 23 21 20 20 20 20 20 19 19 19 19 19 19 19 19 19 19 19 19 19 19 18 18 19 19 19 19 19 19 19 19 18 18 18
21 21 21 22 23 23 24 25 26 27 27 27 26 24 22 21 20 20 20 20 20 19 19 19 19 19 19 19 19 19 19 19 19 19 19 18 18 18 18 18 18 18 18 18 18 19 19 18 18
21 21 22 23 24 25 26 26 27 27 26 26 25 23 21 20 19 19 19 19 19 19 19 19 19 19 19 19 19 19 19 19 19 19 19 18 18 18 18 18 18 18 18 18 18 18 19 19 19
22 22 22 23 25 26 27 27 27 27 26 26 25 23 20 19 19 19 19 19 19 19 18 19 19 19 19 19 19 19 19 19 19 19 19 19 18 18 18 18 18 18 18 18 18 18 18 19 19
23 24 22 23 25 26 27 27 27 26 26 25 24 23 20 19 19 19 19 19 19 19 18 18 18 18 18 18 18 18 18 18 18 18 19 19 19 18 18 18 18 18 18 18 18 18 18 18 18
24 24 24 25 25 25 26 27 26 26 26 25 24 23 20 20 19 19 19 19 19 19 19 18 18 18 18 18 18 18 18 18 18 18 18 19 19 18 18 18 18 18 18 18 18 18 18 18 19
25 25 24 25 25 25 26 26 26 25 25 24 24 23 21 20 19 19 19 19 19 19 19 18 18 18 18 18 18 18 18 18 18 18 18 18 18 18 18 18 18 18 18 18 18 18 18 18 19
26 25 23 24 25 26 26 26 25 25 24 23 22 21 20 20 20 20 20 19 19 19 18 18 18 18 18 18 17 17 17 18 18 18 18 18 18 18 18 18 18 18 18 18 18 18 18 18 18
27 25 24 26 27 27 27 26 26 25 24 23 22 21 20 20 20 20 20 19 19 18 18 18 18 18 17 17 17 17 17 17 17 17 18 18 18 18 18 18 18 18 18 18 18 18 18 18 19
28 26 27 27 27 27 26 26 26 25 24 24 23 22 21 21 21 20 20 19 19 18 18 17 17 17 17 17 17 17 17 17 17 17 17 17 17 17 17 18 18 18 18 18 18 18 18 18 18
28 27 27 27 26 26 26 26 25 25 24 23 22 22 22 21 21 20 20 19 19 18 18 17 17 17 17 16 16 16 16 16 16 17 17 17 17 17 17 17 18 18 18 18 18 18 18 18 18
27 26 27 26 26 26 26 26 25 24 23 22 22 22 21 21 21 20 20 19 19 18 17 17 16 16 16 16 16 16 16 16 16 16 16 16 17 17 17 17 17 17 17 17 17 18 18 18 18
27 27 26 26 26 26 26 25 25 24 23 22 22 22 22 21 20 20 20 19 18 18 17 17 16 15 15 15 15 15 15 15 16 16 16 16 16 16 16 16 17 17 17 17 17 17 18 18 18
27 27 27 26 26 26 26 25 25 24 23 23 22 22 21 21 20 20 19 19 18 17 17 16 16 15 15 15 15 15 15 15 15 15 15 15 16 16 16 16 16 17 17 17 17 17 17 17 18
27 26 25 25 25 25 25 25 25 23 23 23 23 22 21 21 20 20 19 18 17 17 16 16 15 15 14 14 14 14 14 15 15 15 15 15 15 15 15 16 16 16 16 17 17 17 17 17 17
26 24 24 24 25 25 25 25 25 23 24 23 23 22 22 21 21 20 19 18 17 17 16 16 15 15 14 14 14 14 14 14 14 14 14 14 14 14 15 15 15 16 16 16 16 16 17 17 17
24 23 24 24 25 26 26 26 25 24 24 24 23 23 23 22 21 20 18 18 17 16 16 15 15 15 14 14 14 14 14 14 14 14 14 14 14 14 14 14 15 15 15 16 16 16 16 16 17
25 25 26 26 26 26 26 26 26 25 24 24 23 23 23 22 21 20 18 18 17 16 16 15 15 15 14 14 14 13 13 13 14 14 14 13 13 14 14 14 14 15 15 15 16 16 16 16 16
26 26 27 27 27 26 26 27 27 26 25 24 24 23 23 22 21 20 19 18 17 16 15 15 15 14 14 14 14 13 13 13 13 13 13 13 13 13 13 13 14 14 14 15 15 15 16 16 16
27 27 26 26 27 27 26 26 27 26 25 24 23 23 22 22 21 20 18 18 17 16 15 15 15 14 14 14 13 13 13 13 13 13 13 13 13 13 13 14 14 14 14 14 15 15 15 15 16
26 27 27 26 26 26 27 25 26 25 24 24 23 23 22 21 20 19 18 17 17 16 15 14 14 14 14 13 13 13 13 13 13 13 13 13 13 13 13 13 13 14 14 14 14 14 15 15 15
26 27 26 26 26 26 27 26 26 25 25 24 24 23 22 21 20 19 18 17 16 16 15 14 14 14 13 13 13 13 13 13 13 13 13 13 13 13 13 13 13 13 13 14 14 14 14 15 15
27 27 27 26 26 25 26 26 25 25 24 24 24 23 22 21 20 19 18 17 16 15 15 14 14 13 13 13 13 13 13 13 13 13 13 13 13 13 13 13 13 13 13 13 14 14 14 14 14
27 26 25 25 24 25 27 26 25 24 25 24 23 23 22 21 20 19 18 17 16 15 15 14 14 13 13 13 13 13 13 13 13 12 12 13 13 13 13 13 13 13 13 13 13 14 14 14 14
27 26 25 24 25 26 26 26 24 25 24 23 23 22 21 20 20 19 18 17 16 15 15 14 14 13 13 13 13 13 13 13 12 12 12 12 12 13 13 13 13 13 13 13 13 13 13 14 14
26 27 27 25 26 26 27 26 24 24 24 23 23 22 21 21 20 19 18 17 16 15 15 14 14 14 13 13 13 13 13 12 12 12 12 12 12 12 12 12 13 13 13 13 13 13 13 14 14
27 26 26 25 24 25 26 26 24 24 24 24 24 23 22 21 20 19 18 17 16 16 15 15 14 14 14 13 13 13 13 12 12 12 12 12 12 12 12 12 13 13 13 13 13 13 13 13 13
26 26 26 25 25 24 24 24 25 24 24 24 24 23 22 21 20 19 18 17 16 16 15 15 15 14 14 13 13 13 13 12 12 12 12 12 12 12 12 12 12 13 13 13 13 13 13 13 13
26 26 26 24 25 25 24 23 25 24 24 24 24 23 22 20 19 19 18 17 16 16 15 15 15 14 14 13 13 13 13 13 12 12 12 12 12 12 12 12 12 12 12 12 12 13 13 13 13
Wind_Speed
9 10 6 2 2 2 4 6 8 8 6 8 9 10 13 13 8 6 1 6 7 11 13 11 9 6 4 3 2 1 1 1 1 2 2 2 1 1 2 2 2 2 2 2 3 3 3 4 4
9 7 5 3 2 1 4 6 7 8 7 5 8 12 12 11 10 6 4 5 7 10 12 11 9 6 4 3 1 1 1 1 2 2 3 3 3 3 3 3 3 3 3 2 2 3 3 3 3
10 8 4 3 1 4 4 5 5 7 8 7 8 11 7 6 7 4 4 5 9 11 13 12 10 7 5 4 3 2 2 2 2 3 4 4 4 5 5 5 5 4 4 3 3 3 3 3 3
5 4 4 2 4 9 8 6 5 7 8 9 8 9 7 7 4 5 7 8 8 10 12 11 10 8 6 5 4 3 3 3 3 3 4 5 5 6 6 6 6 6 6 5 4 3 4 3 3
5 3 2 2 5 8 8 8 7 8 8 10 10 9 7 8 8 8 8 9 9 8 9 9 8 7 5 4 4 3 3 3 3 4 4 5 6 7 7 7 7 7 7 7 6 5 5 5 4
3 3 2 1 5 7 7 7 7 8 9 9 8 8 6 6 7 7 7 7 7 7 6 7 6 5 4 3 2 2 2 3 4 5 5 5 7 8 9 9 9 9 8 8 7 6 6 6 6
5 5 3 1 5 5 6 6 8 7 9 9 6 7 6 7 6 5 6 6 5 5 5 4 3 3 3 2 1 0 1 3 4 5 6 6 7 9 10 11 11 10 10 9 9 8 8 8 7
4 5 6 4 5 5 4 5 7 8 8 8 7 6 6 6 5 5 4 5 4 4 4 2 2 3 2 0 2 2 4 5 6 6 6 7 8 10 12 13 13 12 11 11 10 10 9 9 9
6 3 3 3 3 5 5 4 6 6 9 10 10 11 8 5 4 4 3 3 4 4 3 2 2 1 1 3 1 3 5 6 7 7 7 7 7 9 9 11 13 12 12 11 11 11 11 10 11
5 2 1 3 5 5 4 4 4 4 6 7 9 8 7 5 4 4 4 5 6 6 6 5 5 3 2 3 2 3 4 4 6 6 7 7 8 8 9 8 11 12 12 12 12 13 12 12 11
3 0 2 4 6 4 4 3 1 1 3 5 7 7 5 3 4 4 5 5 4 5 6 5 6 5 4 2 2 2 4 5 6 7 8 8 7 7 7 5 6 8 10 10 10 11 11 11 11
3 2 2 3 4 1 2 2 1 4 5 7 7 5 4 3 4 4 4 4 4 5 5 5 7 7 6 5 3 3 3 2 3 5 7 5 3 3 4 3 4 5 6 6 7 6 9 10 11
1 2 1 3 2 1 1 2 2 5 5 6 5 4 2 3 4 3 4 5 6 6 6 6 7 8 7 5 4 4 3 2 4 4 6 6 3 4 4 3 4 5 5 5 4 5 6 5 5
2 3 4 5 4 3 3 4 5 6 6 6 4 4 3 3 3 4 5 6 7 7 7 6 6 6 6 6 6 5 4 5 5 4 6 7 4 3 4 5 4 4 5 5 4 5 5 4 3
3 6 7 6 5 4 4 6 7 9 8 6 5 4 2 1 2 3 6 7 7 7 7 7 6 7 7 7 7 5 5 6 4 5 7 8 6 4 3 4 4 4 6 6 4 4 3 4 4
7 8 7 6 5 3 4 5 7 11 9 7 5 3 4 3 2 2 5 6 7 7 7 6 8 8 7 6 5 4 5 5 4 6 7 7 8 7 3 3 3 3 4 3 4 4 3 3 3
6 6 7 3 7 4 6 5 8 10 8 7 6 4 5 4 2 3 5 6 6 6 6 6 6 6 6 6 5 5 5 4 4 5 5 7 8 9 4 3 3 3 3 3 4 3 3 3 3
4 5 6 4 5 6 8 6 7 10 7 6 4 5 5 3 3 5 5 4 4 4 6 6 5 5 6 5 5 5 6 5 4 3 4 6 6 8 5 4 4 3 3 3 3 3 3 3 4
6 9 9 1 4 3 8 8 4 9 7 6 5 5 4 1 3 6 4 3 3 5 7 6 5 5 5 4 4 5 5 5 5 4 4 6 6 6 5 5 4 3 3 4 4 2 3 3 3
10 10 7 3 2 3 9 10 5 7 7 4 3 4 2 2 2 5 4 4 4 5 5 6 6 6 4 3 4 4 5 4 4 4 4 5 5 5 5 5 4 4 3 4 3 2 2 3 4
9 5 6 8 7 9 10 9 5 9 6 4 2 2 4 3 4 5 5 4 4 5 6 7 6 6 6 6 4 5 5 5 4 5 4 5 5 4 4 5 5 4 3 3 4 4 4 4 4
6 5 5 8 9 7 4 4 3 10 7 7 5 3 1 2 2 3 3 5 5 5 6 7 7 7 7 7 5 6 5 5 6 5 5 6 5 4 4 4 5 4 3 3 4 4 3 4 4
3 3 6 9 9 10 8 6 4 8 5 5 5 3 3 3 2 3 3 4 4 5 5 5 6 6 6 6 6 5 4 4 5 5 6 6 5 4 4 3 4 4 3 3 3 3 3 3 4
3 6 10 10 8 8 3 2 3 5 6 5 4 3 4 3 2 2 2 3 3 4 4 4 4 5 5 6 6 6 5 6 7 6 6 5 4 4 5 4 4 4 3 3 3 3 4 4 4
6 8 6 5 6 3 5 1 4 9 7 5 4 4 4 3 2 2 3 4 3 3 3 4 4 5 5 6 6 7 6 6 6 7 6 6 5 4 5 5 4 3 3 3 3 3 4 4 4
5 6 6 6 4 1 4 3 7 9 7 5 3 3 2 2 3 3 3 2 1 2 2 3 4 4 4 5 6 6 7 5 5 6 6 6 5 5 6 5 4 4 3 3 3 3 4 3 4
5 4 3 5 9 6 3 7 8 6 6 5 3 3 2 2 3 3 2 1 1 1 2 3 4 4 4 5 5 5 6 6 6 6 6 5 5 6 6 6 5 4 4 3 3 3 3 3 4
5 7 4 4 5 5 1 4 6 6 4 3 2 3 3 4 3 3 3 1 1 1 0 1 2 3 4 5 5 5 5 6 6 5 6 6 7 6 6 6 5 4 3 3 3 3 3 3 3
6 5 4 4 5 4 4 4 6 6 5 2 2 2 3 3 3 3 3 2 1 1 1 1 1 2 3 5 5 6 5 5 5 5 6 6 6 7 7 6 5 5 4 3 3 3 3 3 3
3 5 5 4 4 2 3 3 5 6 3 1 2 2 3 4 3 3 3 1 1 0 2 2 2 3 3 3 5 6 5 5 6 7 7 7 7 7 7 6 5 5 5 4 4 4 3 2 2
Wind_Direction
198 208 206 223 243 241 55 49 48 37 34 32 34 56 68 55 46 76 27 27 68 97 110 110 102 98 99 103 103 85 9 327 305 283 269 267 253 259 277 287 300 312 330 341 349 353 2 12 15
221 209 221 235 259 70 63 56 52 49 41 43 53 61 66 61 54 76 42 21 64 82 91 98 98 86 77 69 52 2 320 303 289 279 277 274 263 259 261 266 274 282 289 298 313 324 335 350 2
241 232 242 238 313 69 76 63 59 60 45 46 64 58 53 44 44 54 36 54 69 76 81 83 84 76 65 50 32 6 337 305 286 276 276 275 268 265 265 265 266 270 274 276 280 290 301 315 333
226 237 254 268 55 64 69 61 54 66 51 46 71 73 68 48 45 47 47 55 68 79 87 84 79 72 61 47 32 10 351 325 300 277 269 267 265 265 265 266 263 264 267 266 266 265 277 286 297
231 242 295 326 78 72 62 49 52 59 58 52 70 88 82 61 59 52 52 52 58 67 86 91 90 83 73 57 35 16 352 333 315 298 275 267 266 266 267 265 262 260 261 262 259 253 261 267 271
260 262 277 308 86 80 67 50 57 62 60 53 75 94 84 75 64 56 56 54 57 62 70 91 106 107 105 95 65 26 351 326 310 301 297 281 271 267 267 263 260 256 256 256 255 248 249 255 259
262 274 275 106 93 81 65 45 45 57 56 41 48 95 103 79 72 69 70 69 61 60 62 68 86 112 137 130 122 243 292 283 280 280 280 279 275 266 262 258 255 253 253 253 250 247 246 249 251
273 291 329 19 82 94 79 68 55 48 62 47 37 85 99 92 104 94 83 85 78 67 54 51 41 31 12 216 178 232 251 258 262 264 266 267 266 262 256 254 250 248 249 250 249 246 244 244 245
264 280 333 17 50 105 111 97 84 79 80 73 65 73 92 106 111 100 94 81 65 48 35 17 8 8 296 287 252 245 257 250 255 258 258 259 262 260 254 247 245 242 242 244 246 243 241 241 242
235 313 3 39 49 97 108 91 116 122 104 98 96 97 109 118 91 60 47 38 32 28 19 3 353 337 316 312 308 256 268 243 246 252 255 248 250 257 260 265 250 241 240 241 241 241 240 237 239
250 335 51 59 61 89 108 109 104 104 96 100 113 119 117 109 89 58 43 38 30 32 17 353 354 332 332 318 310 291 271 248 246 245 246 247 248 248 251 252 250 241 240 236 235 230 230 230 231
253 46 42 87 79 100 116 120 84 58 77 88 99 109 114 93 65 55 33 22 27 39 6 359 359 347 347 348 341 293 266 251 252 246 249 241 232 239 238 223 224 224 233 233 233 221 225 231 237
200 131 135 108 149 164 148 152 132 118 112 108 118 135 119 70 38 31 31 17 18 25 4 17 5 354 343 336 315 320 313 307 290 270 261 250 231 239 243 235 220 222 227 226 222 224 237 240 245
107 185 184 180 181 184 207 193 190 161 158 157 169 174 131 79 12 353 24 14 11 13 7 21 360 352 341 341 338 329 325 312 306 300 287 278 254 235 231 238 235 227 227 228 218 227 226 238 244
196 220 205 194 203 199 233 239 201 151 170 183 201 191 127 85 322 6 32 10 13 9 5 6 349 3 353 346 338 326 318 320 322 319 316 310 300 277 256 240 237 233 225 224 217 231 229 225 228
230 240 235 198 210 179 237 281 138 146 180 196 208 198 160 196 259 41 44 16 14 3 358 360 359 359 346 337 326 314 322 330 326 322 319 319 319 315 300 276 256 246 238 222 216 216 233 234 227
239 265 280 209 197 196 239 282 144 161 191 207 207 211 200 209 182 71 52 26 12 356 353 7 6 352 344 340 332 328 329 327 322 326 332 331 330 319 314 305 282 271 252 233 230 217 205 233 239
264 283 282 236 186 233 257 271 168 173 195 223 223 224 221 208 107 85 61 37 6 358 3 11 358 359 356 357 345 343 335 331 324 326 330 334 325 317 319 297 289 283 273 254 240 228 210 218 221
270 269 275 237 145 271 289 289 202 173 181 212 232 232 230 135 94 97 75 46 15 21 17 358 353 1 5 5 340 337 328 324 316 316 334 334 324 322 303 295 295 287 271 264 253 244 225 221 207
250 267 298 356 93 302 292 288 246 169 173 192 268 294 301 82 59 91 77 49 31 29 14 350 0 349 3 358 338 326 324 319 318 335 334 334 328 323 311 303 288 274 261 261 261 247 225 231 202
278 305 333 326 316 275 272 270 220 134 143 155 193 289 321 27 24 30 36 28 29 33 16 357 355 354 9 358 353 341 335 328 339 338 333 325 317 313 311 302 296 285 268 249 248 244 229 223 221
297 17 335 309 296 290 274 298 170 140 156 167 175 197 189 75 54 48 33 30 17 34 28 358 358 5 9 356 356 345 335 339 330 326 320 319 313 316 311 296 290 287 282 265 248 241 240 223 225
345 348 294 281 280 283 260 260 138 138 143 132 129 142 119 101 78 50 48 49 18 37 27 358 360 4 4 343 328 320 338 331 321 322 321 324 322 325 322 314 302 295 287 277 264 255 247 232 225
299 267 255 250 257 262 237 273 106 105 80 81 104 122 121 112 107 103 78 75 45 40 19 357 356 1 344 331 330 340 344 336 329 330 329 327 322 322 330 321 308 301 291 282 277 259 250 244 240
246 273 272 239 220 216 113 187 82 89 76 62 57 69 88 106 103 81 65 55 42 20 6 349 3 356 345 339 337 341 343 340 339 337 330 329 326 324 322 316 307 299 293 288 280 261 252 244 240
266 282 299 310 310 1 162 163 102 101 97 92 101 98 103 135 111 86 80 73 47 357 11 8 357 339 339 337 340 340 349 349 338 332 332 331 325 316 316 316 310 307 298 288 279 266 255 246 238
291 280 331 316 292 283 185 124 120 128 137 143 152 155 186 146 126 126 111 78 40 22 27 11 345 343 347 342 337 352 349 342 341 338 336 331 325 324 330 319 314 306 301 290 282 270 264 255 246
284 322 306 274 307 302 205 136 127 133 119 124 164 170 160 144 145 132 126 117 49 28 7 313 309 332 352 347 345 353 344 341 338 334 342 336 332 329 323 324 322 319 310 301 293 282 260 254 253
203 226 244 278 285 302 337 62 75 85 68 23 11 103 119 128 136 130 132 144 163 265 301 309 339 23 17 356 348 340 337 333 336 344 343 339 337 333 332 330 338 334 324 318 313 303 281 256 254
275 280 280 274 299 272 280 99 97 104 108 103 9 71 121 130 137 147 150 175 184 5 344 340 7 32 25 360 341 329 328 342 352 351 350 348 345 341 338 341 351 345 344 346 333 322 313 280 269
Height
1523 1523 1525 1527 1527 1528 1526 1520 1514 1514 1512 1513 1513 1513 1518 1523 1527 1537 1536 1534 1534 1533 1533 1534 1534 1535 1536 1536 1537 1538 1539 1540 1540 1541 1542 1542 1543 1543 1544 1544 1544 1544 1544 1544 1544 1544 1544 1544 1544
1523 1525 1527 1526 1527 1533 1530 1519 1516 1515 1515 1514 1515 1517 1520 1526 1530 1534 1535 1535 1535 1534 1534 1534 1534 1535 1535 1536 1537 1537 1538 1539 1539 1540 1541 1541 1542 1543 1543 1543 1543 1544 1544 1544 1544 1544 1544 1544 1544
1523 1525 1526 1524 1525 1528 1528 1517 1515 1515 1515 1515 1517 1521 1526 1532 1534 1535 1535 1535 1535 1534 1534 1534 1534 1534 1535 1535 1536 1536 1537 1538 1538 1539 1539 1540 1541 1541 1542 1542 1542 1543 1543 1543 1543 1543 1543 1543 1543
1524 1525 1524 1523 1523 1517 1516 1515 1514 1516 1517 1518 1519 1525 1532 1535 1535 1536 1536 1535 1535 1534 1534 1534 1534 1534 1534 1534 1535 1535 1536 1536 1537 1537 1538 1538 1539 1540 1540 1540 1541 1541 1541 1542 1542 1542 1542 1542 1542
1524 1524 1525 1526 1520 1515 1514 1515 1516 1517 1519 1520 1522 1529 1534 1536 1536 1536 1536 1535 1535 1535 1534 1533 1534 1533 1533 1533 1534 1534 1534 1534 1535 1535 1536 1537 1537 1538 1538 1539 1539 1540 1540 1540 1540 1541 1541 1541 1541
1524 1520 1529 1530 1520 1515 1515 1517 1517 1519 1521 1522 1524 1529 1536 1537 1537 1536 1536 1536 1535 1535 1534 1533 1533 1533 1532 1532 1532 1532 1532 1533 1533 1534 1534 1534 1535 1535 1536 1537 1537 1538 1538 1538 1539 1539 1539 1540 1540
1524 1520 1522 1521 1521 1519 1517 1518 1519 1520 1523 1525 1526 1530 1535 1537 1537 1537 1536 1536 1536 1535 1534 1534 1533 1532 1531 1530 1530 1530 1530 1530 1531 1531 1531 1531 1532 1533 1533 1534 1535 1535 1536 1536 1537 1537 1538 1538 1538
1520 1519 1522 1520 1521 1522 1520 1520 1522 1523 1526 1528 1528 1531 1535 1537 1537 1537 1537 1536 1536 1535 1534 1534 1532 1531 1530 1529 1528 1528 1528 1528 1528 1528 1528 1528 1529 1529 1530 1531 1532 1532 1533 1534 1535 1535 1536 1536 1537
1518 1521 1528 1522 1519 1519 1519 1521 1524 1526 1528 1530 1531 1533 1536 1537 1537 1537 1537 1537 1536 1536 1534 1534 1532 1530 1529 1528 1527 1526 1525 1525 1525 1524 1524 1525 1525 1526 1527 1527 1528 1529 1530 1531 1532 1533 1534 1534 1535
1515 1521 1522 1515 1514 1516 1519 1521 1523 1525 1528 1530 1533 1535 1536 1537 1537 1537 1537 1537 1536 1535 1534 1533 1532 1530 1529 1527 1526 1524 1523 1522 1522 1521 1521 1521 1522 1522 1523 1524 1525 1526 1527 1528 1529 1530 1531 1532 1532
1511 1514 1513 1513 1515 1517 1519 1522 1523 1524 1527 1530 1533 1535 1536 1537 1537 1537 1537 1537 1536 1535 1534 1532 1531 1529 1528 1526 1524 1523 1522 1521 1520 1519 1519 1518 1518 1519 1520 1520 1521 1522 1524 1525 1526 1527 1528 1529 1530
1510 1511 1512 1514 1517 1518 1519 1522 1524 1526 1529 1531 1533 1535 1536 1536 1537 1537 1537 1536 1536 1534 1533 1531 1529 1528 1526 1525 1522 1521 1520 1519 1518 1517 1517 1516 1516 1516 1516 1517 1518 1519 1520 1521 1523 1524 1525 1526 1527
1509 1513 1514 1516 1518 1519 1520 1521 1524 1527 1530 1531 1533 1535 1535 1536 1537 1537 1536 1536 1535 1533 1532 1530 1528 1526 1525 1523 1521 1520 1519 1518 1517 1516 1515 1514 1514 1513 1513 1513 1514 1515 1517 1518 1519 1521 1522 1523 1524
1509 1511 1513 1515 1517 1519 1519 1521 1523 1526 1529 1531 1533 1533 1534 1535 1536 1536 1535 1535 1534 1532 1531 1529 1526 1525 1523 1521 1519 1518 1516 1515 1514 1514 1513 1512 1512 1511 1511 1511 1511 1512 1513 1515 1516 1517 1518 1520 1521
1508 1510 1512 1514 1516 1517 1519 1519 1518 1523 1527 1529 1531 1532 1533 1535 1535 1535 1534 1534 1533 1531 1530 1527 1526 1523 1521 1519 1517 1515 1514 1513 1512 1511 1510 1510 1509 1509 1508 1508 1508 1509 1510 1511 1512 1514 1515 1516 1517
1508 1512 1516 1513 1515 1517 1521 1522 1516 1521 1525 1527 1529 1530 1532 1533 1533 1533 1533 1533 1532 1530 1529 1527 1524 1522 1519 1517 1515 1513 1512 1510 1509 1508 1508 1507 1506 1506 1506 1505 1505 1506 1507 1508 1508 1510 1511 1513 1514
1513 1521 1520 1516 1512 1515 1518 1518 1517 1519 1522 1524 1526 1528 1529 1530 1531 1531 1531 1531 1530 1529 1527 1525 1523 1520 1518 1516 1513 1512 1510 1508 1507 1506 1505 1504 1503 1502 1502 1502 1502 1503 1504 1504 1505 1506 1507 1509 1511
1522 1523 1519 1516 1512 1513 1513 1512 1512 1515 1519 1521 1523 1525 1526 1527 1529 1529 1529 1530 1529 1528 1526 1524 1522 1519 1517 1514 1512 1510 1508 1506 1504 1503 1502 1501 1500 1499 1499 1499 1499 1500 1500 1501 1502 1503 1504 1506 1508
1513 1515 1513 1507 1507 1510 1510 1508 1508 1511 1515 1519 1521 1522 1523 1525 1527 1527 1528 1528 1528 1526 1525 1523 1521 1518 1516 1513 1510 1508 1506 1504 1502 1501 1500 1498 1497 1497 1496 1496 1496 1496 1497 1497 1498 1499 1501 1503 1505
1508 1508 1507 1505 1505 1508 1509 1506 1503 1506 1512 1516 1519 1520 1522 1523 1525 1526 1526 1527 1526 1525 1523 1522 1520 1517 1515 1512 1510 1508 1505 1503 1501 1499 1498 1496 1495 1494 1493 1493 1493 1493 1494 1494 1495 1496 1497 1499 1501
1503 1505 1508 1510 1505 1504 1507 1507 1502 1504 1510 1515 1518 1520 1522 1523 1525 1526 1526 1526 1525 1524 1522 1521 1519 1517 1514 1511 1509 1507 1504 1502 1500 1498 1496 1494 1492 1491 1490 1490 1489 1490 1491 1491 1492 1493 1494 1496 1498
1508 1504 1506 1509 1512 1510 1506 1520 1506 1504 1509 1512 1516 1519 1520 1522 1524 1525 1525 1525 1524 1523 1521 1520 1518 1516 1513 1511 1508 1506 1503 1501 1498 1496 1494 1492 1490 1489 1488 1487 1487 1487 1488 1488 1489 1490 1491 1493 1494
1505 1504 1506 1507 1510 1512 1505 1512 1508 1503 1509 1510 1513 1516 1519 1521 1523 1524 1524 1523 1523 1522 1520 1518 1517 1514 1512 1510 1508 1505 1503 1500 1497 1495 1493 1491 1489 1487 1486 1485 1485 1484 1485 1485 1486 1487 1488 1489 1491
1502 1504 1504 1504 1508 1519 1504 1511 1513 1507 1508 1510 1513 1515 1518 1520 1521 1522 1523 1522 1522 1520 1519 1517 1515 1513 1511 1509 1507 1505 1502 1500 1497 1494 1492 1489 1487 1485 1484 1483 1482 1482 1482 1483 1483 1484 1485 1486 1488
1503 1509 1518 1520 1521 1515 1500 1509 1512 1507 1507 1510 1513 1515 1517 1519 1520 1521 1521 1521 1520 1519 1518 1516 1515 1513 1511 1509 1506 1504 1502 1499 1496 1493 1491 1488 1486 1484 1483 1481 1480 1480 1480 1480 1480 1481 1482 1483 1484
1501 1506 1522 1530 1521 1511 1503 1509 1509 1504 1508 1511 1513 1515 1517 1518 1519 1520 1520 1520 1519 1518 1517 1516 1514 1512 1510 1508 1506 1504 1501 1498 1496 1493 1490 1487 1485 1483 1481 1480 1479 1478 1477 1477 1478 1478 1479 1479 1480
1504 1503 1502 1514 1511 1513 1503 1502 1507 1504 1507 1510 1512 1514 1515 1516 1517 1518 1519 1519 1518 1517 1516 1515 1513 1511 1509 1507 1505 1503 1500 1498 1495 1492 1489 1487 1484 1482 1480 1478 1477 1476 1476 1475 1475 1475 1476 1477 1477
1502 1503 1506 1514 1522 1522 1508 1504 1509 1508 1506 1507 1509 1511 1513 1514 1516 1517 1517 1517 1517 1516 1515 1514 1512 1511 1509 1507 1505 1503 1500 1497 1495 1492 1489 1486 1484 1481 1479 1477 1476 1474 1474 1473 1473 1473 1473 1474 1475
1504 1506 1507 1510 1511 1525 1525 1520 1501 1504 1505 1507 1508 1509 1511 1513 1514 1515 1516 1516 1516 1515 1515 1513 1512 1510 1508 1506 1504 1502 1500 1497 1495 1492 1489 1486 1483 1481 1479 1477 1475 1473 1473 1472 1471 1471 1471 1472 1472
1499 1501 1504 1517 1514 1510 1520 1520 1501 1502 1504 1506 1507 1508 1509 1511 1513 1514 1514 1515 1515 1514 1514 1513 1511 1510 1508 1506 1504 1502 1500 1497 1494 1492 1489 1486 1483 1481 1478 1476 1474 1473 1472 1471 1470 1469 1469 1470 1470